Location: ??? ???
(33.4974°N, 35.4618°E)
Time: 17:45:00
(UTC+00:00)

CZ-4B R/B - Pass Details

Date: 29 October 2020
Orbit: 388 x 461 km, 97.6° (Epoch: 30 November)

Event Time Altitude Azimuth Distance (km) Brightness Sun altitude
Rises 15:37:07 0° 359° (N) 2,356 5.0 -10.7°
Reaches altitude 10° 15:39:18 10° 348° (NNW) 1,476 4.1 -11.1°
Maximum altitude 15:42:03 28° 287° (WNW) 784 3.4 -11.7°
Drops below altitude 10° 15:44:44 10° 225° (SW) 1,438 4.8 -12.2°
Sets 15:46:50 0° 213° (SSW) 2,281 5.6 -12.7°
